Location: Emporia
(38.4040°N, 96.1810°W)
Time: 10:27:44
(UTC-06:00)

ISS - Visible Passes

Search period start: 21 January 2018 00:00
Search period end: 31 January 2018 00:00
Orbit: 402 x 407 km, 51.6° (Epoch: 22 January)

Date Brightness Start Highest point End Pass type
(mag) Time Alt. Az. Time Alt. Az. Time Alt. Az.
22 Jan -0.8 19:53:13 10° SW 19:53:29 12° SSW 19:53:29 12° SSW visible
23 Jan -2.4 19:01:29 10° S 19:03:51 24° SE 19:03:51 24° SE visible
24 Jan -1.6 18:10:35 10° SSE 18:12:04 13° SE 18:13:33 10° E visible
24 Jan -1.9 19:44:58 10° WSW 19:46:49 30° WSW 19:46:49 30° WSW visible
25 Jan -3.9 18:52:37 10° SW 18:55:51 67° SE 18:56:59 36° ENE visible
26 Jan -2.0 19:37:13 10° W 19:39:45 26° NW 19:39:45 26° NW visible
27 Jan -3.1 18:44:27 10° WSW 18:47:36 46° NW 18:49:45 18° NE visible
28 Jan -1.4 19:29:56 10° WNW 19:32:03 16° NNW 19:32:20 16° NNW visible
29 Jan -1.9 18:36:46 10° W 18:39:27 23° NNW 18:42:09 10° NNE visible
30 Jan -1.1 19:23:12 10° NNW 19:24:07 11° NNW 19:24:38 11° N visible
